TimeCDT,TemperatureF,Dew PointF,Humidity,Sea Level PressureIn,VisibilityMPH,Wind Direction,Wind SpeedMPH,Gust SpeedMPH,PrecipitationIn,Events,Conditions,WindDirDegrees,DateUTC
12:22 AM,46.4,44.6,93,30.02,1.5,Calm,Calm,-,N/A,,Clear,0,2013-09-30 05:22:00
12:30 AM,44.6,42.8,93,30.02,0.5,Calm,Calm,-,N/A,Fog,Fog,0,2013-09-30 05:30:00
12:44 AM,44.6,44.6,100,30.01,2.0,West,3.5,-,N/A,,Clear,270,2013-09-30 05:44:00
12:53 AM,44.1,43.0,96,30.02,4.0,Calm,Calm,-,N/A,,Clear,0,2013-09-30 05:53:00
1:43 AM,42.8,42.8,100,30.01,1.5,Calm,Calm,-,N/A,,Clear,0,2013-09-30 06:43:00
1:51 AM,44.6,42.8,93,30.01,0.5,Calm,Calm,-,N/A,Fog,Fog,0,2013-09-30 06:51:00
1:53 AM,44.1,42.1,93,30.01,0.2,Calm,Calm,-,N/A,Fog,Fog,0,2013-09-30 06:53:00
2:48 AM,44.6,42.8,93,29.99,1.0,Calm,Calm,-,0.01,,Clear,0,2013-09-30 07:48:00
2:53 AM,43.0,43.0,100,30.00,0.2,Calm,Calm,-,0.01,Fog,Fog,0,2013-09-30 07:53:00
3:31 AM,42.8,41.0,93,30.00,0.5,West,3.5,-,N/A,Fog,Fog,270,2013-09-30 08:31:00
3:47 AM,42.8,41.0,93,30.00,2.0,Calm,Calm,-,N/A,,Clear,0,2013-09-30 08:47:00
3:51 AM,42.8,42.8,100,30.00,0.8,Calm,Calm,-,N/A,,Clear,0,2013-09-30 08:51:00
3:53 AM,42.1,41.0,96,30.00,0.5,West,3.5,-,N/A,Fog,Fog,280,2013-09-30 08:53:00
4:04 AM,41.0,41.0,100,30.00,0.2,Calm,Calm,-,N/A,Fog,Fog,0,2013-09-30 09:04:00
4:28 AM,42.8,41.0,93,30.00,1.2,Calm,Calm,-,N/A,,Clear,0,2013-09-30 09:28:00
4:35 AM,42.8,41.0,93,30.00,2.5,Calm,Calm,-,N/A,,Clear,0,2013-09-30 09:35:00
4:37 AM,42.8,41.0,93,30.00,0.8,Calm,Calm,-,N/A,,Clear,0,2013-09-30 09:37:00
4:48 AM,42.8,41.0,93,30.00,0.2,Calm,Calm,-,N/A,Fog,Fog,0,2013-09-30 09:48:00
4:53 AM,41.0,41.0,100,30.01,0.5,Calm,Calm,-,N/A,Fog,Fog,0,2013-09-30 09:53:00
4:57 AM,42.8,41.0,93,30.00,2.0,Calm,Calm,-,N/A,,Clear,0,2013-09-30 09:57:00
5:04 AM,42.8,41.0,93,30.00,6.0,Calm,Calm,-,N/A,,Clear,0,2013-09-30 10:04:00
5:27 AM,41.0,39.2,93,30.01,1.5,Calm,Calm,-,N/A,,Clear,0,2013-09-30 10:27:00
5:41 AM,42.8,41.0,93,30.01,3.0,Calm,Calm,-,N/A,,Clear,0,2013-09-30 10:41:00
5:53 AM,44.1,41.0,89,30.01,8.0,Calm,Calm,-,N/A,,Clear,0,2013-09-30 10:53:00
6:11 AM,42.8,41.0,93,30.01,1.2,Calm,Calm,-,N/A,,Clear,0,2013-09-30 11:11:00
6:18 AM,42.8,39.2,87,30.01,0.2,Calm,Calm,-,N/A,Fog,Fog,0,2013-09-30 11:18:00
6:25 AM,42.8,39.2,87,30.01,1.0,Calm,Calm,-,N/A,,Clear,0,2013-09-30 11:25:00
6:49 AM,42.8,39.2,87,30.01,2.5,Calm,Calm,-,N/A,,Clear,0,2013-09-30 11:49:00
6:53 AM,44.1,42.1,93,30.02,3.0,Calm,Calm,-,N/A,,Clear,0,2013-09-30 11:53:00
7:53 AM,48.0,46.0,93,30.01,5.0,Calm,Calm,-,N/A,,Clear,0,2013-09-30 12:53:00
8:53 AM,57.0,50.0,77,30.01,10.0,SW,3.5,-,N/A,,Clear,220,2013-09-30 13:53:00
9:53 AM,63.0,53.1,70,30.00,10.0,SW,6.9,-,N/A,,Clear,220,2013-09-30 14:53:00
10:53 AM,66.9,48.9,52,29.99,10.0,SSE,9.2,-,N/A,,Clear,160,2013-09-30 15:53:00
11:53 AM,69.1,48.0,47,29.97,10.0,South,12.7,-,N/A,,Clear,180,2013-09-30 16:53:00
12:53 PM,70.0,48.0,46,29.96,10.0,SSW,10.4,-,N/A,,Clear,200,2013-09-30 17:53:00
1:53 PM,71.1,48.0,44,29.93,10.0,South,10.4,-,N/A,,Clear,180,2013-09-30 18:53:00
2:53 PM,72.0,48.0,43,29.91,10.0,South,8.1,-,N/A,,Clear,190,2013-09-30 19:53:00
3:53 PM,73.0,46.9,39,29.90,10.0,SSW,10.4,-,N/A,,Clear,200,2013-09-30 20:53:00
4:53 PM,70.0,53.1,55,29.89,10.0,SE,9.2,-,N/A,,Clear,140,2013-09-30 21:53:00
5:53 PM,66.9,53.1,61,29.88,10.0,SSE,9.2,-,N/A,,Clear,150,2013-09-30 22:53:00
6:53 PM,63.0,53.1,70,29.89,10.0,SSE,6.9,-,N/A,,Clear,150,2013-09-30 23:53:00
7:53 PM,60.1,53.1,78,29.90,10.0,SSE,5.8,-,N/A,,Clear,160,2013-10-01 00:53:00
8:53 PM,60.1,54.0,80,29.89,10.0,SSE,5.8,-,N/A,,Clear,160,2013-10-01 01:53:00
9:53 PM,59.0,55.0,87,29.88,10.0,South,5.8,-,N/A,,Clear,190,2013-10-01 02:53:00
10:53 PM,59.0,53.1,81,29.86,10.0,South,6.9,-,N/A,,Clear,180,2013-10-01 03:53:00
11:53 PM,54.0,50.0,86,29.88,10.0,WSW,4.6,-,N/A,,Clear,240,2013-10-01 04:53:00